COSMOS 1275 DEB, 39947

Orbit data source: Space-Track

COSMOS 1275 DEB, 39947 is space debris in LEO originally from a launch on Thu, 04 Jun 1981 UTC launched from the Plesetsk Missile And Space Complex (PKMTR). Debris objects in space refer to the collection of defunct objects orbiting the Earth. Examples of debris include non-operational satellites, rocket bodies, and fragments generated from explosions, collisions, or faulty payload assembly.

Loading next visibility...
Identifier
39947, 1981-053NH
Orbit
LEO
Country
Flag of CISCIS
Related business
Manufacturer
Unknown
Mission
Spacecraft
Bus & Motor
Unknown
Mass
Unknown
Launch date (UTC)
1981-06-04 (45 years ago)
Launch vehicle
Unknown
Launch site
Plesetsk Missile And Space Complex (PKMTR)
Object type
Payload
Rocket body
Debris
Shape & HBR
Unknown shape, 0.1 m
Radar Cross Section
Small (<0.1 m²)

Expand to show TLE details & history
Last TLE update: 1 day ago

TLE from 1 day ago
0 COSMOS 1275 DEB
1 39947U 81053NH  26262.29768888  .00000673  00000-0  72977-3 0  9994
2 39947  83.0079 263.3728 0115826 338.9116  34.0549 13.68894943611026
Epoch: 2026-09-19T07:08Z
TLE epoch observation values (Epoch: 2026-09-19T07:08:40.319Z)
Latitude
13.58197°
Longitude
159.6856°
Altitude
935.161 km
Speed
7.42 km/s
True Right ascension
17h 40m 14s
True Declination
13° 30' 20"
Sunlit
Object was in daylight at epoch
Visualization orbit readout
Latitude
Unknown
Longitude
Unknown
Altitude
Unknown
Speed
Unknown
Apparent Right ascension
Unknown
Apparent Declination
Unknown
Sunlit
N/A
Visualization observer readout
Local Sidereal Time
06:46:27
Azimuth
Unknown
Elevation
Unknown
Doppler factor
Unknown
Orbital elements
Apogee altitude
1,086.161 km
Perigee altitude
915.229 km
Semi-major axis
7,378.832 km
Eccentricity
0.01158
Inclination
83.0079°
RAAN
263.3728°
Arg. of periapsis
338.9116°
True anomaly
34.80715°
Mean anomaly
34.0549°
Eccentric anomaly
34.43012°
Mean motion
3.42422 °/min
Orbital period
105.13 mins
BSTAR
0.00072977
Loading maneuver chart data...
Computing Atmospheric mass density...

Documentation

Showing up to 5 results
|